ICX249 EIKN-EGBB

Flight info

Callsign ICX249
Flight time 1h 12m
Altitude 23000
Route CON DCT OLAPO DCT BOFUM Q37 MALUD MALUD1B
Aircraft AT46/M-SDFGIRY/S

Departure

Time 2026-04-27 16:12
Airport Ireland West Airport Knock (EIKN)

Arrival

Time 2026-04-27 17:25
Airport Birmingham Airport (EGBB)
Time Latitude Longitude Altitude Speed Heading
2026-04-27 15:33 53.91405 -8.80939 639 ft 0 kts 291°
2026-04-27 15:57 53.91405 -8.80938 639 ft 0 kts 291°
2026-04-27 16:07 53.91405 -8.80947 639 ft 1 kts 270°
2026-04-27 16:07 53.91397 -8.80960 639 ft 2 kts 193°
2026-04-27 16:08 53.91378 -8.80937 639 ft 5 kts 150°
2026-04-27 16:08 53.91346 -8.80923 639 ft 1 kts 168°
2026-04-27 16:08 53.91318 -8.80913 639 ft 6 kts 168°
2026-04-27 16:08 53.91282 -8.80901 639 ft 0 kts 168°
2026-04-27 16:10 53.91279 -8.80900 639 ft 2 kts 169°
2026-04-27 16:10 53.91201 -8.80875 640 ft 7 kts 167°
2026-04-27 16:11 53.91152 -8.80859 641 ft 6 kts 180°
2026-04-27 16:11 53.91139 -8.80923 641 ft 0 kts 258°
2026-04-27 16:12 53.91094 -8.81312 639 ft 72 kts 259°
2026-04-27 16:12 53.90950 -8.82522 680 ft 128 kts 256°
2026-04-27 16:12 53.90374 -8.85510 1645 ft 151 kts 252°
2026-04-27 16:13 53.89959 -8.87291 2059 ft 164 kts 250°
2026-04-27 16:13 53.88427 -8.89943 3263 ft 175 kts 189°
2026-04-27 16:13 53.87293 -8.89422 3769 ft 178 kts 139°
2026-04-27 16:14 53.86647 -8.85465 4301 ft 190 kts 75°
2026-04-27 16:14 53.87050 -8.80789 5143 ft 199 kts 80°
2026-04-27 16:15 53.87473 -8.76034 5885 ft 212 kts 77°
2026-04-27 16:15 53.87924 -8.70978 6628 ft 215 kts 79°
2026-04-27 16:16 53.88500 -8.66314 7881 ft 192 kts 75°
2026-04-27 16:16 53.88921 -8.61854 8772 ft 194 kts 81°
2026-04-27 16:17 53.88913 -8.57232 9545 ft 199 kts 90°
2026-04-27 16:17 53.88548 -8.52525 10303 ft 203 kts 93°
2026-04-27 16:18 53.88136 -8.47777 11032 ft 206 kts 92°
2026-04-27 16:18 53.87713 -8.42928 11743 ft 210 kts 91°
2026-04-27 16:19 53.87512 -8.40478 12088 ft 211 kts 91°
2026-04-27 16:19 53.87312 -8.38003 12429 ft 213 kts 90°
2026-04-27 16:20 53.86704 -8.30489 13414 ft 217 kts 90°
2026-04-27 16:20 53.86499 -8.27951 13741 ft 218 kts 90°
2026-04-27 16:20 53.86081 -8.22831 14376 ft 221 kts 90°
2026-04-27 16:21 53.85868 -8.20244 14670 ft 222 kts 89°
2026-04-27 16:21 53.85295 -8.13283 15431 ft 226 kts 89°
2026-04-27 16:22 53.85075 -8.10641 15723 ft 227 kts 89°
2026-04-27 16:22 53.84559 -8.04442 16356 ft 230 kts 89°
2026-04-27 16:22 53.84407 -8.02625 16530 ft 231 kts 89°
2026-04-27 16:23 53.84180 -7.99922 16777 ft 233 kts 89°
2026-04-27 16:23 53.83722 -7.94480 17261 ft 235 kts 89°
2026-04-27 16:23 53.83492 -7.91743 17492 ft 235 kts 89°
2026-04-27 16:24 53.83258 -7.88992 17740 ft 237 kts 89°
2026-04-27 16:24 53.82787 -7.83454 18209 ft 239 kts 89°
2026-04-27 16:25 53.82306 -7.77879 18659 ft 240 kts 88°
2026-04-27 16:25 53.81823 -7.72273 19082 ft 241 kts 88°
2026-04-27 16:26 53.81334 -7.66646 19466 ft 242 kts 88°
2026-04-27 16:26 53.80844 -7.61037 19848 ft 243 kts 88°
2026-04-27 16:27 53.80345 -7.55360 20248 ft 244 kts 88°
2026-04-27 16:27 53.79586 -7.46798 20815 ft 246 kts 88°
2026-04-27 16:28 53.79075 -7.41058 21150 ft 248 kts 88°
2026-04-27 16:28 53.78561 -7.35298 21447 ft 249 kts 88°
2026-04-27 16:29 53.77745 -7.26568 21805 ft 255 kts 90°
2026-04-27 16:30 53.76975 -7.20704 22252 ft 248 kts 92°
2026-04-27 16:30 53.76211 -7.15083 22682 ft 245 kts 91°
2026-04-27 16:31 53.75120 -7.06641 23176 ft 247 kts 90°
2026-04-27 16:31 53.74381 -7.00902 23337 ft 256 kts 90°
2026-04-27 16:32 53.73600 -6.94857 23376 ft 271 kts 92°
2026-04-27 16:32 53.73185 -6.91715 23385 ft 278 kts 92°
2026-04-27 16:33 53.72330 -6.85225 23386 ft 288 kts 92°
2026-04-27 16:33 53.71896 -6.81943 23382 ft 293 kts 92°
2026-04-27 16:33 53.71449 -6.78567 23377 ft 296 kts 92°
2026-04-27 16:33 53.71000 -6.75154 23375 ft 299 kts 92°
2026-04-27 16:34 53.70545 -6.71721 23376 ft 301 kts 92°
2026-04-27 16:34 53.70088 -6.68259 23376 ft 303 kts 92°
2026-04-27 16:34 53.69623 -6.64774 23375 ft 305 kts 92°
2026-04-27 16:34 53.69157 -6.61275 23376 ft 307 kts 92°
2026-04-27 16:35 53.68686 -6.57756 23377 ft 308 kts 92°
2026-04-27 16:35 53.68217 -6.54230 23376 ft 309 kts 92°
2026-04-27 16:35 53.67264 -6.47142 23375 ft 311 kts 92°
2026-04-27 16:36 53.66786 -6.43588 23374 ft 312 kts 92°
2026-04-27 16:36 53.66307 -6.40000 23375 ft 316 kts 92°
2026-04-27 16:36 53.65817 -6.36375 23376 ft 319 kts 92°
2026-04-27 16:36 53.65317 -6.32712 23379 ft 321 kts 92°
2026-04-27 16:37 53.64813 -6.29027 23380 ft 324 kts 92°
2026-04-27 16:37 53.64307 -6.25316 23374 ft 326 kts 92°
2026-04-27 16:37 53.63793 -6.21580 23374 ft 328 kts 92°
2026-04-27 16:37 53.63279 -6.17828 23375 ft 329 kts 92°
2026-04-27 16:38 53.62763 -6.14069 23375 ft 330 kts 92°
2026-04-27 16:38 53.62243 -6.10298 23376 ft 331 kts 93°
2026-04-27 16:38 53.61720 -6.06522 23376 ft 331 kts 92°
2026-04-27 16:38 53.61201 -6.02791 23376 ft 332 kts 93°
2026-04-27 16:39 53.60675 -5.99008 23376 ft 332 kts 92°
2026-04-27 16:39 53.60147 -5.95215 23375 ft 333 kts 93°
2026-04-27 16:39 53.59619 -5.91419 23376 ft 333 kts 93°
2026-04-27 16:39 53.59086 -5.87619 23376 ft 334 kts 93°
2026-04-27 16:40 53.58553 -5.83818 23374 ft 334 kts 93°
2026-04-27 16:40 53.58018 -5.80010 23370 ft 335 kts 93°
2026-04-27 16:40 53.57479 -5.76202 23368 ft 335 kts 93°
2026-04-27 16:40 53.56941 -5.72387 23368 ft 335 kts 93°
2026-04-27 16:41 53.56401 -5.68576 23367 ft 335 kts 93°
2026-04-27 16:41 53.55855 -5.64762 23367 ft 335 kts 93°
2026-04-27 16:41 53.55311 -5.60953 23366 ft 335 kts 93°
2026-04-27 16:41 53.54767 -5.57143 23366 ft 335 kts 93°
2026-04-27 16:42 53.54222 -5.53337 23366 ft 335 kts 94°
2026-04-27 16:42 53.53740 -5.49523 23361 ft 329 kts 88°
2026-04-27 16:42 53.53548 -5.45735 23360 ft 322 kts 81°
2026-04-27 16:42 53.53505 -5.41988 23359 ft 320 kts 79°
2026-04-27 16:43 53.53479 -5.38242 23359 ft 321 kts 80°
2026-04-27 16:43 53.53417 -5.34493 23358 ft 322 kts 81°
2026-04-27 16:43 53.53328 -5.30727 23358 ft 322 kts 82°
2026-04-27 16:43 53.53234 -5.26959 23358 ft 322 kts 82°
2026-04-27 16:44 53.53138 -5.23192 23358 ft 323 kts 82°
2026-04-27 16:44 53.53047 -5.19428 23358 ft 322 kts 81°
2026-04-27 16:44 53.52957 -5.15660 23358 ft 323 kts 82°
2026-04-27 16:44 53.52828 -5.11883 23357 ft 324 kts 83°
2026-04-27 16:45 53.52695 -5.08103 23358 ft 324 kts 82°
2026-04-27 16:45 53.52575 -5.04321 23354 ft 324 kts 82°
2026-04-27 16:45 53.52460 -5.00541 23351 ft 324 kts 82°
2026-04-27 16:45 53.52344 -4.96752 23350 ft 324 kts 82°
2026-04-27 16:46 53.52229 -4.92970 23349 ft 325 kts 82°
2026-04-27 16:46 53.52109 -4.89177 23349 ft 325 kts 82°
2026-04-27 16:46 53.51994 -4.85383 23348 ft 325 kts 82°
2026-04-27 16:46 53.51856 -4.81586 23349 ft 326 kts 83°
2026-04-27 16:47 53.51705 -4.77782 23349 ft 326 kts 83°
2026-04-27 16:47 53.51559 -4.74034 23349 ft 326 kts 82°
2026-04-27 16:47 53.51413 -4.70178 23349 ft 326 kts 82°
2026-04-27 16:47 53.51282 -4.66427 23349 ft 326 kts 82°
2026-04-27 16:48 53.51151 -4.62623 23349 ft 326 kts 82°
2026-04-27 16:48 53.51019 -4.58814 23349 ft 327 kts 81°
2026-04-27 16:48 53.50885 -4.55003 23349 ft 327 kts 81°
2026-04-27 16:49 53.50614 -4.47375 23349 ft 327 kts 82°
2026-04-27 16:49 53.50478 -4.43558 23349 ft 327 kts 81°
2026-04-27 16:49 53.50340 -4.39738 23349 ft 328 kts 81°
2026-04-27 16:49 53.50200 -4.35914 23348 ft 328 kts 81°
2026-04-27 16:50 53.50063 -4.32094 23348 ft 328 kts 81°
2026-04-27 16:50 53.49921 -4.28267 23348 ft 328 kts 81°
2026-04-27 16:50 53.49776 -4.24440 23348 ft 328 kts 81°
2026-04-27 16:50 53.49631 -4.20614 23348 ft 329 kts 81°
2026-04-27 16:51 53.49483 -4.16784 23347 ft 329 kts 81°
2026-04-27 16:51 53.49335 -4.12952 23343 ft 329 kts 81°
2026-04-27 16:51 53.49184 -4.09115 23341 ft 329 kts 81°
2026-04-27 16:51 53.49035 -4.05280 23341 ft 329 kts 81°
2026-04-27 16:52 53.48885 -4.01445 23340 ft 329 kts 81°
2026-04-27 16:52 53.48731 -3.97604 23340 ft 329 kts 81°
2026-04-27 16:52 53.48369 -3.93755 23340 ft 342 kts 94°
2026-04-27 16:52 53.47607 -3.89918 23339 ft 350 kts 101°
2026-04-27 16:53 53.46718 -3.86101 23339 ft 351 kts 102°
2026-04-27 16:53 53.45842 -3.82283 23340 ft 350 kts 101°
2026-04-27 16:53 53.45022 -3.78442 23340 ft 349 kts 99°
2026-04-27 16:53 53.44239 -3.74603 23339 ft 349 kts 99°
2026-04-27 16:54 53.43443 -3.70761 23341 ft 349 kts 100°
2026-04-27 16:54 53.42643 -3.66923 23339 ft 349 kts 101°
2026-04-27 16:54 53.41839 -3.63091 23341 ft 348 kts 101°
2026-04-27 16:54 53.40732 -3.59428 23341 ft 358 kts 117°
2026-04-27 16:55 53.39177 -3.56126 23340 ft 364 kts 128°
2026-04-27 16:55 53.37430 -3.53045 23340 ft 365 kts 130°
2026-04-27 16:55 53.35670 -3.49975 23339 ft 365 kts 129°
2026-04-27 16:55 53.33972 -3.46833 23339 ft 363 kts 127°
2026-04-27 16:56 53.32325 -3.43642 23339 ft 362 kts 127°
2026-04-27 16:56 53.30704 -3.40496 23341 ft 362 kts 127°
2026-04-27 16:56 53.29062 -3.37315 23336 ft 361 kts 127°
2026-04-27 16:56 53.27410 -3.34161 23331 ft 361 kts 128°
2026-04-27 16:57 53.25751 -3.31022 23330 ft 360 kts 128°
2026-04-27 16:57 53.24098 -3.27899 23330 ft 359 kts 128°
2026-04-27 16:57 53.22446 -3.24782 23328 ft 358 kts 128°
2026-04-27 16:57 53.20798 -3.21672 23327 ft 357 kts 129°
2026-04-27 16:58 53.19176 -3.18540 23321 ft 356 kts 126°
2026-04-27 16:58 53.17769 -3.15203 23320 ft 346 kts 118°
2026-04-27 16:58 53.16538 -3.11756 22768 ft 352 kts 116°
2026-04-27 16:58 53.15282 -3.08176 21499 ft 364 kts 117°
2026-04-27 16:59 53.13937 -3.04549 20320 ft 371 kts 120°
2026-04-27 16:59 53.12581 -3.01040 20147 ft 345 kts 120°
2026-04-27 16:59 53.11332 -2.97743 20239 ft 330 kts 120°
2026-04-27 16:59 53.10105 -2.94517 20281 ft 330 kts 120°
2026-04-27 17:00 53.08047 -2.89137 20308 ft 333 kts 121°
2026-04-27 17:00 53.06261 -2.84888 20314 ft 336 kts 126°
2026-04-27 17:00 53.04833 -2.81773 20058 ft 344 kts 126°
2026-04-27 17:01 53.03353 -2.78587 19337 ft 350 kts 127°
2026-04-27 17:01 53.01896 -2.75380 18812 ft 346 kts 126°
2026-04-27 17:01 53.00474 -2.72179 18298 ft 342 kts 126°
2026-04-27 17:01 52.99065 -2.69022 17705 ft 338 kts 126°
2026-04-27 17:02 52.97672 -2.65907 17143 ft 334 kts 126°
2026-04-27 17:02 52.96294 -2.62833 16543 ft 331 kts 126°
2026-04-27 17:02 52.94931 -2.59790 15963 ft 326 kts 126°
2026-04-27 17:02 52.93583 -2.56786 15384 ft 323 kts 126°
2026-04-27 17:03 52.92269 -2.53859 14821 ft 319 kts 126°
2026-04-27 17:03 52.90951 -2.50929 14278 ft 315 kts 126°
2026-04-27 17:03 52.89646 -2.48033 13716 ft 312 kts 126°
2026-04-27 17:03 52.88354 -2.45180 13101 ft 308 kts 126°
2026-04-27 17:04 52.87080 -2.42354 12475 ft 304 kts 126°
2026-04-27 17:04 52.85819 -2.39564 11855 ft 301 kts 126°
2026-04-27 17:04 52.84572 -2.36811 11243 ft 297 kts 126°
2026-04-27 17:04 52.83341 -2.34093 10638 ft 293 kts 126°
2026-04-27 17:05 52.82125 -2.31413 10045 ft 289 kts 127°
2026-04-27 17:05 52.80889 -2.28819 9492 ft 285 kts 128°
2026-04-27 17:05 52.79617 -2.26309 9352 ft 282 kts 130°
2026-04-27 17:05 52.78774 -2.24728 9326 ft 272 kts 131°
2026-04-27 17:06 52.77145 -2.21704 9298 ft 256 kts 131°
2026-04-27 17:06 52.75993 -2.19540 9291 ft 246 kts 130°
2026-04-27 17:06 52.74887 -2.17434 9284 ft 239 kts 130°
2026-04-27 17:06 52.73810 -2.15353 9280 ft 237 kts 129°
2026-04-27 17:07 52.72746 -2.13286 9278 ft 235 kts 130°
2026-04-27 17:07 52.71679 -2.11247 9277 ft 234 kts 130°
2026-04-27 17:07 52.70615 -2.09224 9277 ft 233 kts 130°
2026-04-27 17:07 52.69554 -2.07211 9277 ft 232 kts 130°
2026-04-27 17:08 52.68496 -2.05202 9278 ft 232 kts 130°
2026-04-27 17:08 52.67448 -2.03189 9276 ft 232 kts 130°
2026-04-27 17:08 52.66392 -2.01146 9277 ft 236 kts 130°
2026-04-27 17:08 52.65328 -1.99075 9275 ft 239 kts 130°
2026-04-27 17:09 52.64251 -1.96978 9272 ft 241 kts 130°
2026-04-27 17:09 52.63180 -1.94888 9269 ft 243 kts 130°
2026-04-27 17:09 52.62078 -1.92784 9267 ft 241 kts 135°
2026-04-27 17:09 52.60623 -1.91514 9271 ft 239 kts 171°
2026-04-27 17:10 52.58966 -1.91216 9080 ft 242 kts 178°
2026-04-27 17:10 52.57265 -1.91067 8454 ft 245 kts 179°
2026-04-27 17:10 52.55565 -1.90972 7926 ft 243 kts 180°
2026-04-27 17:10 52.53879 -1.90894 7394 ft 242 kts 180°
2026-04-27 17:11 52.52199 -1.90820 6860 ft 241 kts 180°
2026-04-27 17:11 52.48876 -1.90667 5823 ft 238 kts 180°
2026-04-27 17:11 52.47230 -1.90589 5301 ft 236 kts 180°
2026-04-27 17:12 52.44064 -1.90405 5008 ft 218 kts 180°
2026-04-27 17:12 52.43075 -1.90335 4996 ft 212 kts 180°
2026-04-27 17:12 52.41628 -1.90231 4985 ft 205 kts 180°
2026-04-27 17:13 52.40202 -1.90120 4981 ft 212 kts 179°
2026-04-27 17:13 52.38673 -1.90001 4983 ft 224 kts 179°
2026-04-27 17:13 52.37103 -1.89844 4977 ft 227 kts 172°
2026-04-27 17:13 52.35657 -1.88824 4981 ft 228 kts 152°
2026-04-27 17:14 52.34261 -1.87560 4979 ft 231 kts 151°
2026-04-27 17:14 52.32857 -1.86262 4979 ft 233 kts 150°
2026-04-27 17:14 52.31443 -1.84935 4979 ft 235 kts 150°
2026-04-27 17:14 52.30024 -1.83594 4976 ft 236 kts 150°
2026-04-27 17:15 52.28600 -1.82241 4977 ft 237 kts 150°
2026-04-27 17:15 52.27173 -1.80884 4978 ft 238 kts 150°
2026-04-27 17:15 52.25736 -1.79533 4736 ft 235 kts 151°
2026-04-27 17:15 52.24325 -1.78225 4487 ft 232 kts 151°
2026-04-27 17:16 52.22927 -1.76927 4235 ft 231 kts 150°
2026-04-27 17:16 52.21537 -1.75632 3977 ft 230 kts 150°
2026-04-27 17:16 52.20286 -1.74098 3727 ft 225 kts 126°
2026-04-27 17:16 52.19793 -1.71760 3470 ft 218 kts 86°
2026-04-27 17:17 52.20163 -1.69438 3220 ft 209 kts 64°
2026-04-27 17:17 52.20755 -1.67292 2970 ft 204 kts 52°
2026-04-27 17:17 52.21852 -1.66001 2730 ft 195 kts 10°
2026-04-27 17:18 52.24422 -1.66204 2527 ft 180 kts 346°
2026-04-27 17:18 52.25391 -1.67336 2504 ft 174 kts 303°
2026-04-27 17:18 52.26112 -1.68801 2484 ft 164 kts 333°
2026-04-27 17:18 52.27198 -1.68845 2487 ft 165 kts 21°
2026-04-27 17:19 52.28202 -1.67932 2475 ft 164 kts 30°
2026-04-27 17:19 52.28906 -1.66487 2480 ft 165 kts 58°
2026-04-27 17:19 52.29698 -1.65261 2477 ft 152 kts 17°
2026-04-27 17:19 52.30681 -1.64634 2472 ft 153 kts 19°
2026-04-27 17:20 52.31650 -1.63946 2477 ft 157 kts 20°
2026-04-27 17:20 52.32677 -1.63207 2490 ft 163 kts 20°
2026-04-27 17:20 52.33745 -1.62522 2484 ft 165 kts
2026-04-27 17:20 52.34887 -1.62455 2477 ft 165 kts 345°
2026-04-27 17:21 52.35818 -1.63399 2476 ft 151 kts 323°
2026-04-27 17:21 52.36627 -1.64431 2275 ft 142 kts 322°
2026-04-27 17:21 52.37372 -1.65407 2091 ft 132 kts 321°
2026-04-27 17:21 52.38054 -1.66320 1923 ft 124 kts 320°
2026-04-27 17:22 52.38698 -1.67202 1761 ft 119 kts 320°
2026-04-27 17:22 52.39326 -1.68052 1608 ft 115 kts 321°
2026-04-27 17:22 52.39938 -1.68798 1458 ft 106 kts 324°
2026-04-27 17:22 52.40552 -1.69477 1317 ft 106 kts 326°
2026-04-27 17:23 52.41143 -1.70095 1183 ft 98 kts 326°
2026-04-27 17:23 52.41717 -1.70714 1053 ft 99 kts 325°
2026-04-27 17:23 52.42287 -1.71348 922 ft 99 kts 324°
2026-04-27 17:23 52.42856 -1.71988 790 ft 99 kts 324°
2026-04-27 17:24 52.43424 -1.72635 650 ft 100 kts 324°
2026-04-27 17:24 52.44000 -1.73271 511 ft 100 kts 324°
2026-04-27 17:24 52.44576 -1.73911 384 ft 100 kts 326°
2026-04-27 17:24 52.45118 -1.74501 326 ft 80 kts 328°
2026-04-27 17:25 52.45353 -1.74760 318 ft 13 kts 324°
2026-04-27 17:25 52.45392 -1.74775 321 ft 4 kts 33°
2026-04-27 17:25 52.45413 -1.74733 321 ft 6 kts 56°
2026-04-27 17:25 52.45447 -1.74645 319 ft 11 kts 58°
2026-04-27 17:26 52.45462 -1.74608 320 ft 0 kts 57°
2026-04-27 17:27 52.45470 -1.74580 320 ft 5 kts 81°
2026-04-27 17:27 52.45456 -1.74513 320 ft 8 kts 117°
2026-04-27 17:27 52.45428 -1.74420 320 ft 10 kts 116°
2026-04-27 17:28 52.45394 -1.74309 318 ft 12 kts 116°
2026-04-27 17:28 52.45334 -1.74219 320 ft 13 kts 146°
2026-04-27 17:28 52.45182 -1.74049 320 ft 14 kts 147°
2026-04-27 17:29 52.45103 -1.73961 320 ft 14 kts 146°
2026-04-27 17:29 52.45022 -1.73872 320 ft 14 kts 146°
2026-04-27 17:29 52.44941 -1.73782 320 ft 14 kts 146°
2026-04-27 17:29 52.44867 -1.73697 320 ft 10 kts 131°
2026-04-27 17:30 52.44880 -1.73599 318 ft 9 kts 55°
2026-04-27 17:30 52.44941 -1.73411 320 ft 9 kts 56°
2026-04-27 17:30 52.44977 -1.73323 320 ft 9 kts 56°
2026-04-27 17:31 52.45008 -1.73247 320 ft 5 kts 54°
2026-04-27 17:31 52.45012 -1.73217 320 ft 2 kts 141°
2026-04-27 17:31 52.44993 -1.73200 320 ft 3 kts 149°
2026-04-27 17:31 52.44978 -1.73183 320 ft 3 kts 144°
2026-04-27 17:32 52.44972 -1.73177 320 ft 0 kts 144°
2026-04-27 17:32 52.44972 -1.73176 320 ft 0 kts 144°
2026-04-27 17:32 52.44971 -1.73176 320 ft 0 kts 144°